EJA209 KDCA-KCAE

Flight info

Callsign EJA209
Flight time 1h 7m
Altitude 40000
Route JDUBB4 RRSIN GSO
Aircraft CL60/M-SADE3FGHIJ3J4J7P2RWXY/HB1D1

Departure

Time 2026-05-07 20:06
Airport Ronald Reagan Washington National Airport (KDCA)

Arrival

Time 2026-05-07 21:14
Airport Columbia Metropolitan Airport (KCAE)
Time Latitude Longitude Altitude Speed Heading
2026-05-07 19:29 38.84530 -77.04759 24 ft 0 kts 55°
2026-05-07 20:00 38.84533 -77.04752 24 ft 0 kts 56°
2026-05-07 20:00 38.84535 -77.04748 24 ft 2 kts 56°
2026-05-07 20:00 38.84543 -77.04733 24 ft 3 kts 57°
2026-05-07 20:00 38.84563 -77.04684 24 ft 8 kts 67°
2026-05-07 20:01 38.84584 -77.04598 23 ft 10 kts 76°
2026-05-07 20:01 38.84609 -77.04513 23 ft 10 kts 52°
2026-05-07 20:01 38.84646 -77.04446 23 ft 9 kts 75°
2026-05-07 20:01 38.84603 -77.04370 22 ft 13 kts 141°
2026-05-07 20:02 38.84565 -77.04262 21 ft 16 kts 76°
2026-05-07 20:02 38.84588 -77.04121 20 ft 14 kts 75°
2026-05-07 20:02 38.84603 -77.04041 20 ft 6 kts 109°
2026-05-07 20:02 38.84613 -77.03977 19 ft 10 kts 26°
2026-05-07 20:03 38.84689 -77.03933 20 ft 14 kts 26°
2026-05-07 20:03 38.84791 -77.03881 20 ft 17 kts
2026-05-07 20:03 38.84923 -77.03894 21 ft 20 kts 353°
2026-05-07 20:03 38.85076 -77.03908 22 ft 22 kts 357°
2026-05-07 20:04 38.85222 -77.03922 22 ft 21 kts 355°
2026-05-07 20:04 38.85381 -77.03938 22 ft 24 kts 355°
2026-05-07 20:04 38.85541 -77.03955 21 ft 19 kts 356°
2026-05-07 20:04 38.85643 -77.03965 21 ft 15 kts 356°
2026-05-07 20:05 38.85764 -77.03976 20 ft 19 kts 356°
2026-05-07 20:05 38.85870 -77.03986 20 ft 5 kts 358°
2026-05-07 20:05 38.85909 -77.03944 19 ft 10 kts 76°
2026-05-07 20:05 38.85916 -77.03864 19 ft 4 kts 94°
2026-05-07 20:06 38.85898 -77.03851 19 ft 4 kts 175°
2026-05-07 20:06 38.85613 -77.03823 20 ft 90 kts 174°
2026-05-07 20:06 38.84693 -77.03714 119 ft 164 kts 174°
2026-05-07 20:06 38.83488 -77.03565 868 ft 187 kts 174°
2026-05-07 20:07 38.82075 -77.03503 1557 ft 224 kts 181°
2026-05-07 20:07 38.80440 -77.03498 2442 ft 251 kts 180°
2026-05-07 20:07 38.79268 -77.03496 3166 ft 262 kts 180°
2026-05-07 20:07 38.76888 -77.04178 4742 ft 276 kts 216°
2026-05-07 20:08 38.75722 -77.05997 6279 ft 274 kts 250°
2026-05-07 20:08 38.75095 -77.08172 8211 ft 265 kts 253°
2026-05-07 20:08 38.74512 -77.10216 10263 ft 249 kts 252°
2026-05-07 20:08 38.73913 -77.12268 11408 ft 264 kts 251°
2026-05-07 20:09 38.73222 -77.14601 12100 ft 294 kts 250°
2026-05-07 20:09 38.72463 -77.17089 13083 ft 308 kts 249°
2026-05-07 20:09 38.71665 -77.19623 14269 ft 314 kts 249°
2026-05-07 20:10 38.69322 -77.24284 16654 ft 326 kts 226°
2026-05-07 20:10 38.67592 -77.26165 17700 ft 331 kts 226°
2026-05-07 20:10 38.65835 -77.28086 18762 ft 334 kts 226°
2026-05-07 20:10 38.64099 -77.29986 19853 ft 333 kts 227°
2026-05-07 20:11 38.62358 -77.31892 20819 ft 335 kts 227°
2026-05-07 20:11 38.60592 -77.33827 21765 ft 337 kts 226°
2026-05-07 20:11 38.58812 -77.35777 22662 ft 338 kts 227°
2026-05-07 20:11 38.57032 -77.37728 23455 ft 341 kts 227°
2026-05-07 20:12 38.55236 -77.39694 24266 ft 342 kts 227°
2026-05-07 20:12 38.53423 -77.41680 24977 ft 345 kts 228°
2026-05-07 20:12 38.51592 -77.43687 25656 ft 348 kts 227°
2026-05-07 20:12 38.49732 -77.45721 26332 ft 350 kts 228°
2026-05-07 20:13 38.47913 -77.47710 26986 ft 351 kts 229°
2026-05-07 20:13 38.46057 -77.49739 27579 ft 353 kts 229°
2026-05-07 20:13 38.44814 -77.51097 27957 ft 354 kts 228°
2026-05-07 20:13 38.42302 -77.53841 28623 ft 357 kts 229°
2026-05-07 20:14 38.40425 -77.55884 29153 ft 358 kts 229°
2026-05-07 20:14 38.38408 -77.57798 29628 ft 365 kts 224°
2026-05-07 20:14 38.36309 -77.59589 30210 ft 363 kts 224°
2026-05-07 20:14 38.34217 -77.61376 30750 ft 362 kts 225°
2026-05-07 20:15 38.32137 -77.63153 31324 ft 360 kts 225°
2026-05-07 20:15 38.30089 -77.64914 31925 ft 354 kts 226°
2026-05-07 20:15 38.28808 -77.66179 32253 ft 349 kts 229°
2026-05-07 20:15 38.26342 -77.68837 32907 ft 348 kts 230°
2026-05-07 20:16 38.24493 -77.70826 33406 ft 347 kts 229°
2026-05-07 20:16 38.22655 -77.72801 33912 ft 346 kts 230°
2026-05-07 20:16 38.20829 -77.74761 34460 ft 343 kts 229°
2026-05-07 20:16 38.19008 -77.76714 34933 ft 343 kts 230°
2026-05-07 20:17 38.17189 -77.78665 35333 ft 343 kts 229°
2026-05-07 20:17 38.15368 -77.80617 35753 ft 343 kts 229°
2026-05-07 20:17 38.13555 -77.82557 36152 ft 342 kts 230°
2026-05-07 20:17 38.11732 -77.84506 36498 ft 343 kts 230°
2026-05-07 20:18 38.09910 -77.86454 36871 ft 342 kts 229°
2026-05-07 20:18 38.08091 -77.88397 37160 ft 343 kts 229°
2026-05-07 20:18 38.06260 -77.90351 37430 ft 345 kts 229°
2026-05-07 20:18 38.04418 -77.92314 37758 ft 345 kts 230°
2026-05-07 20:19 38.02580 -77.94270 38071 ft 344 kts 229°
2026-05-07 20:19 38.00760 -77.96208 38350 ft 344 kts 229°
2026-05-07 20:19 37.98924 -77.98159 38600 ft 345 kts 230°
2026-05-07 20:19 37.97077 -78.00122 38850 ft 345 kts 230°
2026-05-07 20:20 37.95238 -78.02076 39058 ft 346 kts 229°
2026-05-07 20:20 37.93394 -78.04032 39288 ft 347 kts 229°
2026-05-07 20:20 37.91548 -78.05988 39543 ft 347 kts 230°
2026-05-07 20:20 37.89705 -78.07940 39840 ft 345 kts 229°
2026-05-07 20:21 37.87855 -78.09899 39910 ft 348 kts 229°
2026-05-07 20:21 37.84079 -78.13899 39906 ft 355 kts 229°
2026-05-07 20:22 37.80268 -78.17925 39894 ft 359 kts 230°
2026-05-07 20:22 37.76437 -78.21963 39901 ft 359 kts 230°
2026-05-07 20:23 37.72608 -78.25994 39899 ft 358 kts 229°
2026-05-07 20:23 37.68790 -78.30006 39907 ft 356 kts 230°
2026-05-07 20:24 37.64986 -78.34000 39898 ft 357 kts 230°
2026-05-07 20:24 37.61183 -78.37988 39903 ft 356 kts 230°
2026-05-07 20:25 37.57365 -78.41986 39890 ft 356 kts 229°
2026-05-07 20:25 37.53634 -78.45888 39895 ft 356 kts 230°
2026-05-07 20:26 37.49822 -78.49869 39897 ft 356 kts 230°
2026-05-07 20:26 37.46004 -78.53848 39894 ft 357 kts 229°
2026-05-07 20:27 37.42804 -78.57154 39901 ft 357 kts 229°
2026-05-07 20:27 37.38353 -78.61745 39889 ft 355 kts 230°
2026-05-07 20:28 37.34531 -78.65683 39888 ft 356 kts 229°
2026-05-07 20:28 37.30693 -78.69635 39881 ft 358 kts 229°
2026-05-07 20:29 37.26847 -78.73586 39887 ft 356 kts 229°
2026-05-07 20:29 37.23017 -78.77515 39887 ft 355 kts 230°
2026-05-07 20:30 37.19192 -78.81435 39878 ft 355 kts 229°
2026-05-07 20:30 37.15376 -78.85339 39891 ft 354 kts 230°
2026-05-07 20:31 37.11566 -78.89233 39877 ft 353 kts 230°
2026-05-07 20:31 37.07760 -78.93118 39880 ft 353 kts 230°
2026-05-07 20:32 37.03940 -78.97013 39889 ft 354 kts 230°
2026-05-07 20:32 37.00120 -79.00902 39885 ft 353 kts 230°
2026-05-07 20:33 36.96307 -79.04776 39881 ft 352 kts 230°
2026-05-07 20:33 36.92520 -79.08652 39883 ft 353 kts 230°
2026-05-07 20:34 36.88719 -79.12556 39893 ft 353 kts 230°
2026-05-07 20:34 36.84928 -79.16444 39901 ft 354 kts 230°
2026-05-07 20:35 36.81123 -79.20341 39896 ft 355 kts 230°
2026-05-07 20:35 36.77287 -79.24264 39900 ft 356 kts 230°
2026-05-07 20:36 36.73469 -79.28162 39896 ft 355 kts 230°
2026-05-07 20:36 36.69645 -79.32061 39900 ft 356 kts 230°
2026-05-07 20:37 36.65802 -79.35974 39904 ft 356 kts 230°
2026-05-07 20:37 36.61955 -79.39887 39905 ft 356 kts 230°
2026-05-07 20:38 36.58749 -79.43144 39903 ft 356 kts 230°
2026-05-07 20:38 36.54265 -79.47692 39901 ft 356 kts 230°
2026-05-07 20:39 36.50418 -79.51588 39887 ft 356 kts 230°
2026-05-07 20:39 36.47214 -79.54829 39879 ft 356 kts 230°
2026-05-07 20:40 36.42713 -79.59377 39882 ft 357 kts 230°
2026-05-07 20:40 36.38854 -79.63270 39887 ft 357 kts 230°
2026-05-07 20:41 36.35644 -79.66504 39891 ft 357 kts 230°
2026-05-07 20:41 36.31118 -79.71060 39899 ft 358 kts 230°
2026-05-07 20:42 36.27270 -79.74926 39895 ft 358 kts 230°
2026-05-07 20:42 36.23413 -79.78796 39894 ft 357 kts 230°
2026-05-07 20:43 36.19551 -79.82665 39894 ft 356 kts 230°
2026-05-07 20:43 36.16331 -79.85889 39891 ft 356 kts 230°
2026-05-07 20:44 36.11829 -79.90391 39897 ft 357 kts 230°
2026-05-07 20:44 36.07963 -79.94250 39894 ft 357 kts 230°
2026-05-07 20:45 36.03909 -79.97921 39893 ft 370 kts 223°
2026-05-07 20:45 35.99889 -80.00164 39892 ft 384 kts 215°
2026-05-07 20:46 35.93993 -80.02752 39895 ft 388 kts 214°
2026-05-07 20:46 35.88901 -80.04972 39879 ft 388 kts 214°
2026-05-07 20:47 35.83802 -80.07191 39874 ft 388 kts 214°
2026-05-07 20:47 35.78704 -80.09406 39882 ft 387 kts 214°
2026-05-07 20:48 35.73596 -80.11629 39468 ft 394 kts 214°
2026-05-07 20:48 35.71004 -80.12755 38978 ft 394 kts 214°
2026-05-07 20:48 35.68430 -80.13866 38501 ft 391 kts 213°
2026-05-07 20:48 35.65862 -80.14975 37990 ft 390 kts 214°
2026-05-07 20:49 35.63307 -80.16080 37483 ft 390 kts 213°
2026-05-07 20:49 35.60745 -80.17186 36960 ft 388 kts 214°
2026-05-07 20:49 35.58197 -80.18287 36448 ft 389 kts 214°
2026-05-07 20:49 35.55644 -80.19390 35934 ft 389 kts 213°
2026-05-07 20:50 35.53094 -80.20489 35409 ft 389 kts 214°
2026-05-07 20:50 35.50536 -80.21593 34905 ft 390 kts 214°
2026-05-07 20:50 35.47959 -80.22706 34388 ft 392 kts 213°
2026-05-07 20:50 35.45384 -80.23815 33867 ft 393 kts 214°
2026-05-07 20:51 35.43657 -80.24559 33523 ft 395 kts 213°
2026-05-07 20:51 35.40170 -80.26060 32827 ft 397 kts 213°
2026-05-07 20:51 35.37559 -80.27183 32271 ft 399 kts 213°
2026-05-07 20:51 35.34929 -80.28313 31734 ft 400 kts 213°
2026-05-07 20:52 35.32298 -80.29444 31206 ft 404 kts 213°
2026-05-07 20:52 35.29630 -80.30591 30656 ft 407 kts 213°
2026-05-07 20:52 35.26944 -80.31742 30112 ft 409 kts 213°
2026-05-07 20:52 35.24267 -80.32887 29567 ft 409 kts 213°
2026-05-07 20:53 35.21572 -80.34037 29006 ft 407 kts 213°
2026-05-07 20:53 35.18902 -80.35175 28479 ft 405 kts 213°
2026-05-07 20:53 35.16235 -80.36310 27934 ft 402 kts 213°
2026-05-07 20:53 35.13629 -80.37419 27404 ft 398 kts 213°
2026-05-07 20:54 35.11034 -80.38522 26888 ft 393 kts 213°
2026-05-07 20:54 35.08460 -80.39617 26359 ft 390 kts 212°
2026-05-07 20:54 35.05895 -80.40708 25845 ft 387 kts 212°
2026-05-07 20:54 35.04190 -80.41433 25497 ft 385 kts 212°
2026-05-07 20:55 35.00831 -80.42861 24828 ft 381 kts 211°
2026-05-07 20:55 34.98331 -80.43922 24323 ft 378 kts 212°
2026-05-07 20:55 34.95842 -80.44980 23830 ft 376 kts 211°
2026-05-07 20:55 34.93375 -80.46027 23325 ft 373 kts 211°
2026-05-07 20:56 34.90944 -80.47057 22835 ft 368 kts 211°
2026-05-07 20:56 34.89346 -80.47734 22528 ft 366 kts 211°
2026-05-07 20:56 34.86135 -80.49096 21872 ft 364 kts 211°
2026-05-07 20:56 34.84545 -80.49770 21549 ft 363 kts 212°
2026-05-07 20:57 34.81352 -80.51123 20893 ft 360 kts 211°
2026-05-07 20:57 34.78985 -80.52124 20415 ft 358 kts 211°
2026-05-07 20:57 34.76632 -80.53120 19943 ft 358 kts 211°
2026-05-07 20:57 34.74274 -80.54117 19473 ft 356 kts 211°
2026-05-07 20:58 34.71935 -80.55105 18994 ft 354 kts 211°
2026-05-07 20:58 34.69619 -80.56082 18526 ft 352 kts 211°
2026-05-07 20:58 34.67298 -80.57061 18066 ft 350 kts 211°
2026-05-07 20:58 34.64999 -80.58029 17766 ft 347 kts 211°
2026-05-07 20:59 34.62698 -80.59003 17243 ft 349 kts 211°
2026-05-07 20:59 34.60405 -80.59968 16797 ft 348 kts 210°
2026-05-07 20:59 34.58116 -80.60932 16321 ft 346 kts 210°
2026-05-07 20:59 34.55834 -80.61893 15866 ft 346 kts 210°
2026-05-07 21:00 34.53558 -80.62851 15411 ft 346 kts 210°
2026-05-07 21:00 34.51283 -80.63808 14959 ft 346 kts 209°
2026-05-07 21:00 34.49010 -80.64763 14492 ft 345 kts 209°
2026-05-07 21:00 34.46740 -80.65716 14054 ft 343 kts 208°
2026-05-07 21:01 34.45233 -80.66347 13734 ft 340 kts 208°
2026-05-07 21:01 34.42265 -80.67586 13140 ft 330 kts 208°
2026-05-07 21:01 34.40108 -80.68486 12697 ft 323 kts 208°
2026-05-07 21:01 34.37997 -80.69367 12276 ft 316 kts 208°
2026-05-07 21:02 34.35942 -80.70224 11863 ft 308 kts 208°
2026-05-07 21:02 34.33937 -80.71061 11461 ft 302 kts 207°
2026-05-07 21:02 34.31962 -80.71885 11068 ft 295 kts 208°
2026-05-07 21:02 34.30032 -80.72691 10681 ft 289 kts 207°
2026-05-07 21:03 34.28145 -80.73479 10304 ft 283 kts 207°
2026-05-07 21:03 34.26289 -80.74254 9930 ft 278 kts 207°
2026-05-07 21:03 34.24476 -80.75011 9571 ft 273 kts 207°
2026-05-07 21:03 34.22682 -80.75761 9209 ft 271 kts 207°
2026-05-07 21:04 34.20897 -80.76509 8848 ft 271 kts 206°
2026-05-07 21:04 34.19101 -80.77260 8481 ft 271 kts 207°
2026-05-07 21:04 34.17904 -80.77760 8244 ft 271 kts 206°
2026-05-07 21:04 34.15535 -80.78749 7767 ft 270 kts 206°
2026-05-07 21:05 34.13753 -80.79493 7406 ft 270 kts 206°
2026-05-07 21:05 34.11979 -80.80232 7050 ft 269 kts 205°
2026-05-07 21:05 34.10202 -80.80972 6690 ft 268 kts 206°
2026-05-07 21:05 34.08441 -80.81705 6339 ft 267 kts 205°
2026-05-07 21:06 34.06679 -80.82439 5987 ft 268 kts 205°
2026-05-07 21:06 34.04932 -80.83163 5634 ft 262 kts 205°
2026-05-07 21:06 34.03208 -80.83877 5288 ft 257 kts 205°
2026-05-07 21:06 34.02059 -80.84353 5058 ft 253 kts 205°
2026-05-07 21:07 33.99879 -80.85256 4625 ft 247 kts 205°
2026-05-07 21:07 33.98263 -80.85925 4299 ft 242 kts 205°
2026-05-07 21:07 33.96668 -80.86585 3975 ft 238 kts 205°
2026-05-07 21:07 33.95110 -80.87230 3663 ft 234 kts 205°
2026-05-07 21:08 33.93568 -80.87869 3350 ft 231 kts 205°
2026-05-07 21:08 33.92556 -80.88288 3147 ft 229 kts 205°
2026-05-07 21:08 33.90683 -80.89381 2756 ft 214 kts 229°
2026-05-07 21:08 33.89974 -80.90680 2718 ft 187 kts 253°
2026-05-07 21:09 33.89805 -80.92190 2877 ft 173 kts 272°
2026-05-07 21:09 33.90002 -80.93605 2829 ft 170 kts 283°
2026-05-07 21:09 33.90304 -80.94962 2722 ft 165 kts 283°
2026-05-07 21:09 33.90580 -80.96257 2589 ft 152 kts 283°
2026-05-07 21:10 33.90842 -80.97453 2429 ft 143 kts 283°
2026-05-07 21:10 33.91084 -80.98560 2283 ft 142 kts 282°
2026-05-07 21:10 33.91344 -80.99749 1980 ft 147 kts 283°
2026-05-07 21:10 33.91568 -81.00914 1790 ft 141 kts 279°
2026-05-07 21:11 33.91693 -81.01675 1736 ft 132 kts 279°
2026-05-07 21:11 33.91951 -81.03090 1541 ft 120 kts 282°
2026-05-07 21:11 33.92378 -81.04930 1229 ft 112 kts 285°
2026-05-07 21:12 33.92643 -81.05819 1062 ft 112 kts 285°
2026-05-07 21:12 33.92861 -81.06732 917 ft 112 kts 282°
2026-05-07 21:12 33.93049 -81.07653 795 ft 113 kts 282°
2026-05-07 21:12 33.93278 -81.08576 651 ft 115 kts 284°
2026-05-07 21:13 33.93478 -81.09503 516 ft 113 kts 280°
2026-05-07 21:13 33.93682 -81.10440 376 ft 119 kts 281°
2026-05-07 21:13 33.93887 -81.11368 225 ft 104 kts 283°
2026-05-07 21:13 33.94048 -81.12081 228 ft 67 kts 285°
2026-05-07 21:14 33.94132 -81.12477 237 ft 42 kts 284°
2026-05-07 21:14 33.94171 -81.12666 241 ft 10 kts 284°
2026-05-07 21:14 33.94180 -81.12706 241 ft 5 kts 297°
2026-05-07 21:14 33.94232 -81.12671 242 ft 11 kts 69°
2026-05-07 21:15 33.94259 -81.12556 241 ft 17 kts 75°
2026-05-07 21:15 33.94289 -81.12435 240 ft 16 kts 73°
2026-05-07 21:15 33.94287 -81.12279 238 ft 22 kts 106°
2026-05-07 21:15 33.94246 -81.12093 233 ft 23 kts 104°
2026-05-07 21:16 33.94205 -81.11899 228 ft 21 kts 105°
2026-05-07 21:16 33.94166 -81.11722 225 ft 17 kts 104°
2026-05-07 21:16 33.94131 -81.11561 223 ft 22 kts 105°
2026-05-07 21:16 33.94089 -81.11369 220 ft 15 kts 104°
2026-05-07 21:17 33.94057 -81.11220 218 ft 18 kts 106°
2026-05-07 21:17 33.94077 -81.11132 217 ft 13 kts 39°
2026-05-07 21:17 33.94121 -81.11122 217 ft 7 kts 300°
2026-05-07 21:17 33.94136 -81.11200 218 ft 10 kts 282°
2026-05-07 21:18 33.94159 -81.11298 219 ft 13 kts 285°
2026-05-07 21:18 33.94185 -81.11419 221 ft 15 kts 285°
2026-05-07 21:18 33.94207 -81.11524 223 ft 7 kts 284°
2026-05-07 21:18 33.94231 -81.11553 224 ft 6 kts
2026-05-07 21:19 33.94259 -81.11546 224 ft 0 kts 19°